Date String (YYYY-MM-DD hh:mm:ss) UTC,Instrument flags,Ambient pressure (hPa),Sample flow (lpm),Bypass flow (lpm),Sample temperature (°C),Ambient temperature (°C),ASC tube jacket temperature (°C),LED temperature (°C),Box temperature (°C),Sample RH (%),Span deviation,Mass concentration (μg/m³),Mass concentration (μg/m³),Mass concentration (μg/m³)
DateTimeUTC,F1_M11,P_M11,Q1_M11,Q2_M11,T1_M11,T2_M11,T3_M11,T4_M11,T5_M11,U1_M11,ZSPAN_M11,X2_M11,X0_M11,X1_M11
2023-02-08 00:00:00,,0829.0,5.02,0.00,24.6,23.5,00.0,33.3,26.5,11.8,0000.0,0006.36,0017.85,0004.80
2023-02-08 00:01:00,,0828.8,5.00,0.00,24.6,23.5,00.0,33.3,26.5,11.8,0000.0,0006.40,0017.03,0004.79
2023-02-08 00:02:00,,0828.8,4.99,0.00,24.6,23.5,00.0,33.4,26.5,11.8,0000.0,0006.40,0016.80,0004.79
2023-02-08 00:03:00,,0828.9,5.01,0.00,24.6,23.5,00.0,33.4,26.5,11.9,0000.0,0006.42,0016.88,0004.79
2023-02-08 00:04:00,,0828.8,5.01,0.00,24.6,23.5,00.0,33.4,26.5,11.9,0000.0,0006.41,0016.73,0004.78
2023-02-08 00:05:00,,0828.8,5.00,0.00,24.7,23.5,00.0,33.4,26.5,11.8,0000.0,0006.41,0016.63,0004.75
2023-02-08 00:06:00,,0828.8,4.99,0.00,24.7,23.5,00.0,33.4,26.5,11.7,0000.0,0006.38,0017.23,0004.73
2023-02-08 00:07:00,,0828.9,5.02,0.00,24.7,23.5,00.0,33.4,26.5,11.6,0000.0,0006.36,0017.22,0004.72
2023-02-08 00:08:00,,0829.0,5.00,0.00,24.7,23.5,00.0,33.4,26.5,11.6,0000.0,0006.39,0018.09,0004.73
2023-02-08 00:09:00,,0828.9,5.01,0.00,24.7,23.5,00.0,33.4,26.5,11.6,0000.0,0006.41,0018.73,0004.73
2023-02-08 00:10:00,,0828.9,5.00,0.00,24.7,23.5,00.0,33.4,26.5,11.6,0000.0,0006.36,0018.50,0004.74
2023-02-08 00:11:00,,0828.9,5.00,0.00,24.7,23.6,00.0,33.5,26.6,11.6,0000.0,0006.37,0017.47,0004.75
2023-02-08 00:12:00,,0828.9,5.00,0.00,24.7,23.5,00.0,33.5,26.6,11.5,0000.0,0006.28,0017.59,0004.73
2023-02-08 00:13:00,,0829.0,5.00,0.00,24.7,23.6,00.0,33.5,26.6,11.4,0000.0,0006.25,0018.45,0004.71
2023-02-08 00:14:00,,0829.0,5.00,0.00,24.7,23.6,00.0,33.5,26.6,11.3,0000.0,0006.19,0019.03,0004.67
2023-02-08 00:15:00,,0829.1,5.00,0.00,24.7,23.5,00.0,33.5,26.6,11.3,0000.0,0006.18,0018.86,0004.65
2023-02-08 00:16:00,,0829.1,5.01,0.00,24.7,23.5,00.0,33.5,26.6,11.3,0000.0,0006.14,0018.79,0004.62
2023-02-08 00:17:00,,0829.1,5.00,0.00,24.7,23.5,00.0,33.5,26.6,11.3,0000.0,0006.06,0017.77,0004.60
2023-02-08 00:18:00,,0829.1,5.00,0.00,24.7,23.4,00.0,33.5,26.6,11.3,0000.0,0006.01,0017.42,0004.57
2023-02-08 00:19:00,,0829.1,5.00,0.00,24.7,23.5,00.0,33.5,26.5,11.2,0000.0,0005.91,0016.54,0004.54
2023-02-08 00:20:00,,0829.1,5.02,0.00,24.7,23.5,00.0,33.5,26.6,11.3,0000.0,0005.83,0016.39,0004.50
2023-02-08 00:21:00,,0829.1,4.99,0.00,24.7,23.5,00.0,33.5,26.6,11.3,0000.0,0005.82,0016.80,0004.47
2023-02-08 00:22:00,,0829.1,4.99,0.00,24.7,23.5,00.0,33.5,26.6,11.2,0000.0,0005.81,0017.31,0004.42
2023-02-08 00:23:00,,0829.1,5.00,0.00,24.7,23.5,00.0,33.5,26.5,11.2,0000.0,0005.84,0016.93,0004.41
2023-02-08 00:24:00,,0829.0,5.02,0.00,24.7,23.4,00.0,33.5,26.5,11.2,0000.0,0005.78,0016.92,0004.40
2023-02-08 00:25:00,,0829.0,5.01,0.00,24.7,23.4,00.0,33.5,26.6,11.2,0000.0,0005.70,0015.94,0004.40
2023-02-08 00:26:00,,0829.0,5.00,0.00,24.7,23.4,00.0,33.5,26.5,11.2,0000.0,0005.67,0015.93,0004.39
2023-02-08 00:27:00,,0829.1,5.02,0.00,24.7,23.4,00.0,33.5,26.5,11.2,0000.0,0005.67,0015.69,0004.38
2023-02-08 00:28:00,,0829.1,5.02,0.00,24.7,23.4,00.0,33.5,26.6,11.2,0000.0,0005.70,0015.80,0004.37
2023-02-08 00:29:00,,0829.1,5.01,0.00,24.7,23.4,00.0,33.5,26.6,11.2,0000.0,0005.71,0016.03,0004.37
2023-02-08 00:30:00,,0829.1,5.03,0.00,24.7,23.4,00.0,33.5,26.6,11.2,0000.0,0005.71,0016.70,0004.37
2023-02-08 00:31:00,,0829.1,5.01,0.00,24.7,23.4,00.0,33.6,26.6,11.2,0000.0,0005.71,0016.50,0004.38
2023-02-08 00:32:00,,0829.1,5.01,0.00,24.7,23.4,00.0,33.5,26.6,11.2,0000.0,0005.68,0016.58,0004.38
2023-02-08 00:33:00,,0829.2,5.02,0.00,24.7,23.5,00.0,33.5,26.6,11.1,0000.0,0005.62,0016.19,0004.37
2023-02-08 00:34:00,,0829.2,4.99,0.00,24.7,23.5,00.0,33.6,26.6,11.1,0000.0,0005.58,0015.55,0004.36
2023-02-08 00:35:00,,0829.2,5.00,0.00,24.7,23.5,00.0,33.6,26.6,11.1,0000.0,0005.57,0014.05,0004.35
2023-02-08 00:36:00,,0829.2,5.00,0.00,24.7,23.5,00.0,33.6,26.6,11.1,0000.0,0005.64,0013.97,0004.32
2023-02-08 00:37:00,,0829.1,4.98,0.00,24.7,23.5,00.0,33.6,26.6,11.1,0000.0,0005.59,0014.30,0004.31
2023-02-08 00:38:00,,0829.1,4.96,0.00,24.7,23.5,00.0,33.6,26.6,11.0,0000.0,0005.55,0014.61,0004.31
2023-02-08 00:39:00,,0829.2,5.02,0.00,24.7,23.5,00.0,33.6,26.6,11.0,0000.0,0005.49,0014.57,0004.31
2023-02-08 00:40:00,,0829.2,4.99,0.00,24.7,23.5,00.0,33.6,26.6,11.0,0000.0,0005.45,0015.46,0004.30
2023-02-08 00:41:00,,0829.2,5.01,0.00,24.8,23.5,00.0,33.6,26.6,11.0,0000.0,0005.46,0015.03,0004.29
2023-02-08 00:42:00,,0829.2,5.00,0.00,24.8,23.5,00.0,33.6,26.6,11.0,0000.0,0005.43,0015.20,0004.28
2023-02-08 00:43:00,,0829.2,5.04,0.00,24.8,23.5,00.0,33.6,26.6,11.0,0000.0,0005.41,0014.69,0004.28
2023-02-08 00:44:00,,0829.3,5.01,0.00,24.8,23.4,00.0,33.6,26.6,10.9,0000.0,0005.41,0014.60,0004.27
2023-02-08 00:45:00,,0829.3,4.96,0.00,24.8,23.4,00.0,33.6,26.6,10.9,0000.0,0005.39,0015.17,0004.28
2023-02-08 00:46:00,,0829.2,5.04,0.00,24.8,23.5,00.0,33.6,26.6,10.9,0000.0,0005.43,0016.80,0004.29
2023-02-08 00:47:00,,0829.3,4.97,0.00,24.8,23.5,00.0,33.6,26.6,10.9,0000.0,0005.40,0018.41,0004.30
2023-02-08 00:48:00,,0829.2,5.05,0.00,24.8,23.5,00.0,33.6,26.6,10.9,0000.0,0005.42,0018.22,0004.31
2023-02-08 00:49:00,,0829.2,4.97,0.00,24.8,23.5,00.0,33.6,26.6,10.9,0000.0,0005.45,0018.06,0004.32
2023-02-08 00:50:00,,0829.2,5.04,0.00,24.8,23.5,00.0,33.6,26.6,10.9,0000.0,0005.51,0018.56,0004.34
2023-02-08 00:51:00,,0829.2,5.00,0.00,24.8,23.5,00.0,33.6,26.6,10.9,0000.0,0005.57,0018.48,0004.36
2023-02-08 00:52:00,,0829.2,5.05,0.00,24.8,23.5,00.0,33.6,26.6,10.9,0000.0,0005.61,0018.09,0004.38
2023-02-08 00:53:00,,0829.2,4.96,0.00,24.8,23.5,00.0,33.6,26.6,10.8,0000.0,0005.66,0017.82,0004.40
2023-02-08 00:54:00,,0829.2,5.00,0.00,24.8,23.5,00.0,33.6,26.6,10.8,0000.0,0005.74,0018.01,0004.42
2023-02-08 00:55:00,,0829.2,5.00,0.00,24.8,23.5,00.0,33.6,26.6,10.7,0000.0,0005.79,0018.27,0004.45
2023-02-08 00:56:00,,0829.3,4.99,0.00,24.8,23.5,00.0,33.6,26.6,10.7,0000.0,0005.85,0018.66,0004.47
2023-02-08 00:57:00,,0829.2,4.98,0.00,24.8,23.5,00.0,33.6,26.6,10.7,0000.0,0005.88,0017.97,0004.48
2023-02-08 00:58:00,,0829.3,5.01,0.00,24.8,23.5,00.0,33.6,26.6,10.7,0000.0,0005.90,0016.28,0004.50
2023-02-08 00:59:00,,0829.3,5.00,0.00,24.8,23.5,00.0,33.6,26.6,10.7,0000.0,0005.92,0015.71,0004.52
